Precipitable_Water
0.51 0.50 0.49 0.49 0.47 0.48 0.48 0.48 0.48 0.48 0.49 0.48 0.46 0.46 0.46 0.45 0.44 0.44 0.44 0.44 0.44 0.44 0.44 0.43 0.44 0.43 0.44 0.44 0.44 0.44 0.43 0.31 0.26 0.25 0.24 0.32 0.38 0.49 0.49 0.47 0.44 0.41 0.36 0.31 0.28 0.25 0.22 0.23 0.22 0.25 0.23 0.22 0.21 0.23 0.26 0.26 0.25 0.21 0.14 0.11 0.10 0.13 0.12 0.17 0.17 0.20 0.23 0.22 0.25 0.27 0.29 0.28 0.26 0.30 0.31 0.33 0.32 0.33 0.33 0.33 0.35 0.38 0.39 0.41 0.43 0.46 0.46 0.47
0.53 0.51 0.49 0.46 0.48 0.50 0.49 0.48 0.48 0.47 0.47 0.46 0.46 0.46 0.46 0.46 0.47 0.46 0.46 0.46 0.46 0.45 0.45 0.46 0.46 0.45 0.45 0.45 0.46 0.46 0.40 0.31 0.25 0.27 0.28 0.45 0.48 0.52 0.50 0.46 0.43 0.40 0.35 0.28 0.25 0.24 0.23 0.22 0.23 0.23 0.20 0.18 0.27 0.20 0.27 0.22 0.28 0.17 0.14 0.13 0.12 0.13 0.15 0.22 0.23 0.25 0.24 0.24 0.27 0.29 0.31 0.30 0.29 0.31 0.34 0.30 0.31 0.32 0.31 0.32 0.34 0.34 0.38 0.42 0.44 0.45 0.45 0.46
0.54 0.53 0.51 0.48 0.51 0.50 0.49 0.49 0.48 0.47 0.47 0.47 0.47 0.48 0.48 0.48 0.48 0.47 0.47 0.48 0.48 0.48 0.48 0.47 0.48 0.47 0.45 0.46 0.48 0.49 0.39 0.26 0.25 0.23 0.33 0.48 0.52 0.52 0.49 0.44 0.42 0.41 0.35 0.29 0.29 0.27 0.25 0.24 0.25 0.22 0.20 0.18 0.21 0.19 0.24 0.23 0.26 0.24 0.19 0.15 0.16 0.19 0.21 0.25 0.26 0.27 0.28 0.29 0.28 0.29 0.31 0.30 0.32 0.33 0.36 0.31 0.30 0.31 0.30 0.30 0.32 0.33 0.34 0.38 0.41 0.44 0.45 0.45
0.55 0.55 0.51 0.51 0.50 0.49 0.48 0.49 0.49 0.49 0.49 0.50 0.49 0.49 0.51 0.50 0.50 0.50 0.50 0.51 0.50 0.50 0.50 0.49 0.49 0.48 0.48 0.47 0.50 0.49 0.36 0.25 0.20 0.27 0.37 0.49 0.53 0.53 0.46 0.42 0.40 0.39 0.37 0.33 0.33 0.30 0.30 0.28 0.26 0.24 0.19 0.18 0.21 0.25 0.22 0.27 0.24 0.27 0.23 0.19 0.20 0.23 0.23 0.26 0.29 0.30 0.31 0.31 0.29 0.29 0.31 0.30 0.33 0.34 0.33 0.32 0.29 0.30 0.31 0.34 0.33 0.33 0.36 0.39 0.41 0.43 0.45 0.44
0.55 0.54 0.53 0.52 0.52 0.49 0.50 0.50 0.51 0.51 0.51 0.52 0.52 0.51 0.51 0.52 0.52 0.52 0.54 0.52 0.53 0.51 0.52 0.51 0.50 0.49 0.48 0.50 0.51 0.47 0.29 0.18 0.22 0.30 0.43 0.49 0.53 0.52 0.45 0.42 0.41 0.40 0.37 0.35 0.34 0.32 0.30 0.27 0.25 0.23 0.21 0.18 0.22 0.24 0.24 0.29 0.31 0.28 0.24 0.26 0.26 0.28 0.25 0.30 0.32 0.33 0.33 0.33 0.31 0.31 0.29 0.30 0.35 0.34 0.32 0.32 0.28 0.28 0.32 0.35 0.39 0.39 0.40 0.40 0.40 0.42 0.44 0.43
0.55 0.53 0.53 0.53 0.52 0.53 0.52 0.51 0.52 0.51 0.53 0.52 0.53 0.54 0.53 0.53 0.55 0.55 0.55 0.55 0.54 0.54 0.52 0.53 0.51 0.49 0.50 0.50 0.51 0.40 0.26 0.13 0.27 0.32 0.54 0.52 0.53 0.49 0.43 0.41 0.40 0.39 0.38 0.35 0.33 0.32 0.29 0.27 0.26 0.22 0.21 0.21 0.22 0.21 0.26 0.29 0.33 0.23 0.27 0.29 0.30 0.31 0.28 0.32 0.32 0.33 0.33 0.31 0.30 0.30 0.32 0.33 0.32 0.31 0.34 0.33 0.32 0.35 0.41 0.41 0.42 0.42 0.43 0.44 0.45 0.44 0.43 0.44
0.56 0.53 0.53 0.53 0.53 0.52 0.53 0.54 0.52 0.53 0.53 0.54 0.55 0.55 0.55 0.56 0.56 0.56 0.56 0.56 0.54 0.56 0.53 0.53 0.52 0.52 0.50 0.50 0.46 0.35 0.26 0.25 0.29 0.37 0.53 0.51 0.52 0.45 0.43 0.41 0.41 0.40 0.39 0.35 0.34 0.31 0.30 0.28 0.27 0.25 0.24 0.24 0.26 0.26 0.29 0.30 0.34 0.28 0.25 0.30 0.30 0.32 0.29 0.33 0.32 0.34 0.33 0.32 0.31 0.33 0.35 0.31 0.32 0.28 0.35 0.33 0.38 0.40 0.43 0.44 0.44 0.44 0.45 0.46 0.44 0.45 0.45 0.46
0.57 0.56 0.54 0.52 0.53 0.52 0.51 0.54 0.54 0.53 0.54 0.55 0.55 0.56 0.57 0.57 0.58 0.57 0.58 0.57 0.57 0.54 0.57 0.53 0.53 0.52 0.52 0.43 0.33 0.29 0.27 0.26 0.40 0.59 0.58 0.54 0.52 0.47 0.44 0.43 0.42 0.41 0.38 0.36 0.35 0.32 0.31 0.28 0.26 0.29 0.26 0.24 0.28 0.28 0.31 0.30 0.32 0.29 0.28 0.32 0.32 0.33 0.33 0.34 0.34 0.34 0.34 0.34 0.35 0.35 0.32 0.32 0.33 0.33 0.35 0.34 0.39 0.42 0.43 0.45 0.44 0.44 0.45 0.46 0.46 0.46 0.47 0.48
0.58 0.58 0.57 0.54 0.53 0.54 0.52 0.52 0.55 0.55 0.55 0.55 0.56 0.56 0.57 0.58 0.59 0.59 0.58 0.58 0.58 0.56 0.55 0.55 0.54 0.53 0.54 0.42 0.32 0.25 0.25 0.40 0.51 0.60 0.62 0.56 0.53 0.51 0.48 0.41 0.45 0.41 0.39 0.40 0.40 0.36 0.33 0.30 0.30 0.31 0.26 0.29 0.33 0.31 0.33 0.31 0.29 0.33 0.32 0.33 0.33 0.33 0.34 0.35 0.35 0.35 0.35 0.35 0.36 0.33 0.33 0.34 0.35 0.37 0.34 0.37 0.40 0.43 0.44 0.43 0.43 0.45 0.45 0.45 0.46 0.47 0.48 0.48
0.61 0.59 0.58 0.57 0.54 0.54 0.53 0.53 0.55 0.56 0.56 0.56 0.57 0.58 0.59 0.60 0.60 0.60 0.59 0.59 0.58 0.57 0.55 0.56 0.53 0.55 0.44 0.36 0.33 0.22 0.34 0.54 0.64 0.67 0.66 0.59 0.55 0.52 0.50 0.49 0.47 0.44 0.40 0.41 0.41 0.39 0.34 0.34 0.34 0.36 0.36 0.34 0.36 0.33 0.36 0.35 0.32 0.38 0.36 0.36 0.35 0.36 0.36 0.37 0.35 0.36 0.37 0.36 0.37 0.33 0.33 0.34 0.37 0.35 0.30 0.39 0.41 0.43 0.42 0.41 0.43 0.44 0.44 0.45 0.46 0.48 0.49 0.49
0.62 0.60 0.60 0.59 0.57 0.53 0.52 0.53 0.56 0.57 0.57 0.58 0.59 0.60 0.60 0.61 0.61 0.61 0.61 0.59 0.58 0.57 0.56 0.55 0.57 0.50 0.40 0.38 0.28 0.23 0.57 0.61 0.65 0.63 0.61 0.60 0.56 0.52 0.50 0.51 0.51 0.46 0.45 0.45 0.42 0.42 0.40 0.39 0.40 0.40 0.38 0.34 0.38 0.36 0.37 0.37 0.40 0.38 0.38 0.38 0.37 0.38 0.39 0.39 0.38 0.37 0.38 0.36 0.38 0.36 0.33 0.35 0.36 0.35 0.32 0.36 0.41 0.43 0.40 0.40 0.41 0.44 0.45 0.46 0.48 0.48 0.50 0.50
0.63 0.62 0.62 0.60 0.59 0.56 0.54 0.53 0.55 0.56 0.57 0.59 0.61 0.61 0.61 0.62 0.63 0.61 0.61 0.60 0.58 0.58 0.59 0.57 0.57 0.51 0.43 0.36 0.29 0.30 0.51 0.62 0.66 0.61 0.59 0.57 0.53 0.54 0.56 0.55 0.54 0.51 0.48 0.44 0.45 0.46 0.46 0.44 0.44 0.40 0.33 0.43 0.34 0.39 0.38 0.42 0.40 0.39 0.39 0.33 0.36 0.37 0.36 0.38 0.36 0.37 0.38 0.35 0.38 0.38 0.34 0.32 0.33 0.32 0.36 0.39 0.41 0.42 0.40 0.40 0.42 0.44 0.46 0.47 0.48 0.49 0.49 0.50
0.64 0.64 0.63 0.61 0.60 0.58 0.56 0.54 0.55 0.56 0.57 0.60 0.62 0.62 0.63 0.63 0.63 0.63 0.62 0.59 0.60 0.60 0.60 0.60 0.58 0.54 0.42 0.30 0.34 0.49 0.58 0.66 0.65 0.61 0.59 0.59 0.57 0.58 0.57 0.57 0.55 0.54 0.52 0.47 0.46 0.49 0.50 0.48 0.46 0.40 0.44 0.41 0.39 0.34 0.41 0.43 0.40 0.40 0.38 0.35 0.33 0.34 0.33 0.37 0.39 0.39 0.37 0.38 0.40 0.39 0.26 0.30 0.32 0.35 0.38 0.41 0.41 0.41 0.40 0.40 0.42 0.44 0.46 0.47 0.48 0.48 0.49 0.51
0.63 0.65 0.64 0.61 0.60 0.59 0.57 0.55 0.55 0.56 0.58 0.60 0.63 0.63 0.64 0.64 0.64 0.64 0.62 0.60 0.62 0.62 0.61 0.62 0.60 0.50 0.40 0.33 0.42 0.52 0.66 0.66 0.63 0.57 0.55 0.59 0.54 0.54 0.57 0.58 0.58 0.56 0.57 0.52 0.53 0.54 0.51 0.52 0.49 0.47 0.49 0.42 0.38 0.48 0.41 0.40 0.41 0.34 0.36 0.37 0.31 0.29 0.30 0.37 0.38 0.40 0.36 0.40 0.40 0.39 0.27 0.29 0.32 0.35 0.40 0.41 0.42 0.40 0.39 0.40 0.42 0.45 0.46 0.47 0.48 0.48 0.49 0.51
0.65 0.65 0.65 0.62 0.62 0.61 0.59 0.57 0.56 0.57 0.58 0.61 0.63 0.64 0.65 0.64 0.64 0.64 0.64 0.62 0.63 0.66 0.65 0.64 0.57 0.46 0.36 0.37 0.50 0.67 0.71 0.68 0.53 0.54 0.60 0.54 0.51 0.50 0.51 0.55 0.54 0.55 0.56 0.57 0.55 0.57 0.56 0.55 0.51 0.45 0.42 0.48 0.47 0.41 0.37 0.36 0.37 0.37 0.31 0.29 0.32 0.29 0.32 0.36 0.40 0.39 0.34 0.38 0.41 0.38 0.29 0.31 0.34 0.37 0.42 0.43 0.42 0.41 0.39 0.40 0.42 0.45 0.47 0.47 0.47 0.48 0.49 0.50
0.65 0.68 0.67 0.64 0.62 0.63 0.60 0.58 0.57 0.57 0.60 0.63 0.63 0.65 0.68 0.66 0.65 0.64 0.66 0.64 0.67 0.68 0.67 0.52 0.49 0.46 0.37 0.30 0.42 0.73 0.59 0.44 0.48 0.59 0.62 0.59 0.55 0.49 0.54 0.53 0.55 0.55 0.56 0.56 0.60 0.58 0.57 0.54 0.46 0.45 0.44 0.45 0.40 0.37 0.35 0.34 0.34 0.35 0.32 0.29 0.29 0.31 0.31 0.33 0.38 0.40 0.41 0.39 0.41 0.39 0.33 0.36 0.38 0.43 0.46 0.48 0.45 0.43 0.41 0.42 0.43 0.45 0.47 0.47 0.47 0.48 0.48 0.49
0.68 0.67 0.66 0.67 0.66 0.65 0.62 0.60 0.59 0.60 0.62 0.63 0.65 0.68 0.70 0.68 0.67 0.65 0.66 0.67 0.65 0.69 0.62 0.46 0.50 0.50 0.30 0.45 0.58 0.42 0.40 0.49 0.62 0.60 0.60 0.62 0.58 0.55 0.54 0.52 0.50 0.52 0.56 0.56 0.57 0.56 0.54 0.49 0.49 0.46 0.46 0.39 0.39 0.38 0.32 0.29 0.29 0.31 0.33 0.29 0.32 0.29 0.31 0.29 0.37 0.41 0.42 0.41 0.37 0.41 0.37 0.37 0.40 0.43 0.46 0.48 0.48 0.46 0.44 0.44 0.45 0.46 0.47 0.48 0.48 0.48 0.48 0.48
0.70 0.69 0.68 0.68 0.68 0.68 0.65 0.62 0.63 0.62 0.65 0.66 0.68 0.69 0.65 0.69 0.69 0.69 0.65 0.66 0.68 0.62 0.58 0.60 0.54 0.44 0.36 0.47 0.33 0.36 0.49 0.50 0.56 0.60 0.60 0.63 0.62 0.58 0.55 0.50 0.52 0.52 0.52 0.49 0.54 0.47 0.50 0.44 0.46 0.37 0.38 0.37 0.37 0.36 0.30 0.25 0.28 0.29 0.29 0.29 0.30 0.32 0.33 0.32 0.32 0.39 0.42 0.42 0.39 0.39 0.39 0.39 0.41 0.45 0.46 0.48 0.50 0.48 0.46 0.46 0.46 0.47 0.47 0.48 0.48 0.48 0.48 0.47
0.72 0.72 0.70 0.69 0.72 0.72 0.69 0.66 0.65 0.67 0.68 0.71 0.72 0.75 0.73 0.72 0.68 0.66 0.57 0.57 0.47 0.40 0.34 0.36 0.37 0.26 0.22 0.35 0.48 0.49 0.52 0.57 0.63 0.61 0.54 0.57 0.60 0.60 0.59 0.58 0.54 0.49 0.43 0.42 0.43 0.45 0.47 0.43 0.42 0.36 0.30 0.33 0.35 0.36 0.33 0.33 0.34 0.32 0.32 0.32 0.32 0.30 0.32 0.33 0.38 0.43 0.43 0.39 0.38 0.39 0.38 0.40 0.42 0.45 0.47 0.49 0.50 0.49 0.48 0.49 0.48 0.48 0.48 0.48 0.48 0.47 0.46 0.45
0.75 0.74 0.74 0.75 0.75 0.75 0.71 0.69 0.69 0.68 0.73 0.68 0.68 0.63 0.57 0.42 0.42 0.40 0.51 0.52 0.40 0.37 0.39 0.42 0.45 0.45 0.44 0.45 0.46 0.57 0.66 0.66 0.52 0.59 0.61 0.63 0.59 0.56 0.54 0.53 0.50 0.49 0.43 0.36 0.40 0.43 0.45 0.34 0.31 0.29 0.32 0.36 0.38 0.39 0.38 0.38 0.37 0.37 0.37 0.35 0.34 0.35 0.36 0.41 0.42 0.45 0.47 0.42 0.40 0.41 0.42 0.42 0.44 0.45 0.48 0.49 0.50 0.49 0.49 0.48 0.48 0.48 0.48 0.47 0.47 0.45 0.45 0.45
0.76 0.77 0.76 0.77 0.78 0.77 0.75 0.71 0.71 0.73 0.74 0.72 0.66 0.50 0.32 0.32 0.28 0.27 0.37 0.43 0.48 0.50 0.46 0.47 0.49 0.46 0.44 0.50 0.55 0.54 0.47 0.50 0.57 0.56 0.60 0.69 0.61 0.54 0.47 0.49 0.44 0.38 0.41 0.42 0.39 0.44 0.43 0.33 0.31 0.36 0.39 0.40 0.40 0.41 0.41 0.40 0.40 0.38 0.37 0.36 0.35 0.37 0.35 0.41 0.43 0.47 0.48 0.42 0.40 0.44 0.42 0.42 0.44 0.46 0.47 0.49 0.48 0.46 0.47 0.47 0.47 0.47 0.47 0.47 0.46 0.44 0.44 0.45
0.77 0.78 0.77 0.78 0.80 0.80 0.79 0.75 0.76 0.77 0.80 0.75 0.65 0.47 0.47 0.50 0.54 0.59 0.50 0.35 0.47 0.54 0.55 0.54 0.57 0.51 0.58 0.56 0.60 0.60 0.55 0.45 0.48 0.54 0.64 0.63 0.54 0.45 0.45 0.44 0.40 0.35 0.41 0.41 0.40 0.37 0.34 0.31 0.36 0.42 0.44 0.44 0.43 0.42 0.42 0.41 0.39 0.40 0.37 0.37 0.36 0.37 0.41 0.45 0.45 0.47 0.47 0.44 0.40 0.44 0.41 0.41 0.44 0.46 0.47 0.47 0.47 0.48 0.49 0.48 0.47 0.46 0.45 0.45 0.44 0.43 0.44 0.45
0.81 0.81 0.81 0.81 0.81 0.82 0.82 0.80 0.80 0.83 0.79 0.66 0.57 0.56 0.55 0.67 0.73 0.74 0.67 0.53 0.46 0.57 0.54 0.54 0.49 0.50 0.51 0.59 0.60 0.61 0.45 0.40 0.38 0.49 0.55 0.58 0.50 0.47 0.45 0.40 0.38 0.38 0.39 0.39 0.33 0.34 0.31 0.35 0.42 0.45 0.45 0.43 0.42 0.42 0.42 0.42 0.41 0.39 0.38 0.36 0.34 0.40 0.38 0.36 0.44 0.47 0.48 0.45 0.41 0.43 0.41 0.41 0.45 0.46 0.46 0.47 0.47 0.48 0.49 0.48 0.47 0.46 0.43 0.43 0.42 0.43 0.43 0.43
0.87 0.86 0.84 0.84 0.86 0.86 0.86 0.83 0.84 0.81 0.73 0.68 0.64 0.62 0.75 0.79 0.77 0.75 0.61 0.44 0.40 0.47 0.52 0.54 0.53 0.51 0.49 0.47 0.58 0.55 0.46 0.44 0.45 0.44 0.62 0.55 0.46 0.51 0.45 0.42 0.39 0.39 0.36 0.39 0.40 0.37 0.35 0.41 0.47 0.46 0.45 0.43 0.41 0.42 0.42 0.40 0.37 0.41 0.40 0.39 0.38 0.40 0.42 0.42 0.42 0.46 0.48 0.48 0.48 0.44 0.40 0.38 0.41 0.39 0.41 0.44 0.47 0.46 0.46 0.46 0.45 0.44 0.45 0.44 0.44 0.44 0.44 0.43
0.90 0.90 0.87 0.87 0.90 0.92 0.89 0.88 0.73 0.68 0.75 0.71 0.64 0.76 0.83 0.83 0.80 0.76 0.55 0.46 0.45 0.42 0.60 0.56 0.60 0.55 0.57 0.71 0.65 0.50 0.50 0.50 0.50 0.55 0.60 0.57 0.50 0.47 0.43 0.49 0.44 0.38 0.40 0.44 0.43 0.41 0.40 0.46 0.49 0.45 0.44 0.44 0.44 0.41 0.42 0.42 0.38 0.40 0.43 0.43 0.43 0.45 0.43 0.44 0.46 0.44 0.41 0.39 0.45 0.42 0.31 0.29 0.36 0.36 0.36 0.39 0.41 0.40 0.42 0.41 0.40 0.41 0.42 0.42 0.41 0.42 0.45 0.45
0.93 0.93 0.91 0.92 0.94 0.95 0.95 0.72 0.67 0.75 0.70 0.60 0.66 0.79 0.84 0.87 0.91 0.78 0.57 0.40 0.28 0.39 0.51 0.36 0.61 0.47 0.71 0.53 0.59 0.55 0.55 0.42 0.55 0.58 0.62 0.61 0.63 0.52 0.50 0.45 0.48 0.38 0.43 0.44 0.42 0.42 0.41 0.48 0.48 0.45 0.45 0.45 0.44 0.42 0.45 0.46 0.40 0.38 0.40 0.49 0.48 0.47 0.46 0.45 0.44 0.43 0.35 0.32 0.39 0.44 0.30 0.25 0.33 0.32 0.34 0.35 0.35 0.35 0.38 0.38 0.38 0.40 0.40 0.41 0.42 0.43 0.43 0.43
0.96 0.94 0.96 0.99 0.99 1.00 0.77 0.60 0.82 0.79 0.59 0.60 0.80 0.88 0.89 0.86 0.97 0.81 0.50 0.37 0.28 0.41 0.37 0.52 0.53 0.55 0.67 0.59 0.60 0.60 0.35 0.38 0.62 0.65 0.63 0.68 0.57 0.66 0.47 0.44 0.48 0.50 0.50 0.49 0.43 0.37 0.46 0.46 0.47 0.48 0.46 0.44 0.42 0.40 0.46 0.47 0.43 0.38 0.49 0.51 0.50 0.48 0.46 0.46 0.45 0.43 0.40 0.43 0.43 0.41 0.37 0.27 0.26 0.32 0.37 0.36 0.34 0.34 0.35 0.36 0.38 0.39 0.40 0.41 0.42 0.43 0.43 0.43
1.07 1.00 1.00 1.05 1.07 1.00 0.82 0.86 0.79 0.67 0.63 0.80 0.86 0.91 0.96 0.93 0.93 0.83 0.51 0.28 0.23 0.51 0.41 0.52 0.57 0.73 0.68 0.66 0.69 0.55 0.51 0.61 0.48 0.59 0.70 0.71 0.68 0.59 0.54 0.46 0.46 0.46 0.50 0.48 0.33 0.47 0.48 0.45 0.47 0.45 0.45 0.43 0.40 0.45 0.49 0.51 0.45 0.45 0.52 0.53 0.50 0.50 0.49 0.48 0.45 0.42 0.41 0.38 0.32 0.37 0.39 0.29 0.26 0.32 0.38 0.37 0.31 0.32 0.33 0.35 0.37 0.39 0.40 0.41 0.42 0.42 0.43 0.42
1.24 1.18 1.09 1.09 1.11 1.07 1.04 0.90 0.83 0.71 0.84 0.92 0.96 0.94 1.00 0.99 0.84 0.61 0.45 0.28 0.43 0.48 0.78 0.51 0.78 0.67 0.64 0.69 0.62 0.63 0.60 0.63 0.50 0.62 0.73 0.73 0.73 0.63 0.51 0.53 0.54 0.52 0.54 0.52 0.43 0.48 0.52 0.52 0.51 0.50 0.46 0.41 0.47 0.51 0.53 0.53 0.46 0.52 0.56 0.56 0.54 0.52 0.50 0.48 0.44 0.41 0.39 0.35 0.27 0.32 0.36 0.27 0.25 0.32 0.33 0.35 0.32 0.30 0.32 0.35 0.37 0.38 0.39 0.41 0.41 0.42 0.42 0.42
1.31 1.30 1.27 1.20 1.14 1.06 1.00 0.99 0.86 0.95 0.98 1.01 1.04 1.04 1.01 0.90 0.69 0.47 0.39 0.26 0.48 0.37 0.56 0.60 0.56 0.52 0.63 0.54 0.56 0.60 0.55 0.59 0.62 0.65 0.68 0.63 0.65 0.70 0.64 0.68 0.58 0.54 0.51 0.54 0.52 0.53 0.54 0.60 0.61 0.53 0.48 0.51 0.52 0.54 0.56 0.55 0.56 0.58 0.56 0.51 0.49 0.48 0.46 0.47 0.45 0.42 0.37 0.28 0.28 0.35 0.36 0.32 0.23 0.29 0.30 0.29 0.29 0.32 0.34 0.35 0.37 0.39 0.40 0.41 0.41 0.41 0.41 0.41
1.30 1.35 1.34 1.33 1.11 1.09 1.05 0.86 0.92 1.04 1.08 1.09 1.09 1.06 0.93 0.76 0.52 0.41 0.31 0.33 0.52 0.49 0.57 0.54 0.49 0.62 0.53 0.50 0.46 0.58 0.57 0.58 0.59 0.61 0.56 0.63 0.59 0.62 0.60 0.57 0.62 0.53 0.51 0.50 0.48 0.51 0.53 0.54 0.53 0.55 0.59 0.57 0.57 0.53 0.58 0.59 0.58 0.56 0.50 0.47 0.46 0.42 0.44 0.40 0.39 0.40 0.29 0.24 0.30 0.35 0.35 0.34 0.23 0.25 0.31 0.35 0.36 0.36 0.36 0.34 0.36 0.37 0.38 0.39 0.40 0.41 0.41 0.40
1.32 1.33 1.37 1.32 1.27 1.27 0.99 0.89 1.08 1.14 1.16 1.15 1.05 0.88 0.74 0.49 0.59 0.38 0.30 0.53 0.36 0.44 0.45 0.47 0.54 0.55 0.53 0.55 0.51 0.51 0.51 0.55 0.58 0.57 0.52 0.52 0.50 0.49 0.49 0.43 0.47 0.38 0.38 0.40 0.39 0.48 0.45 0.47 0.53 0.54 0.60 0.56 0.52 0.50 0.52 0.55 0.55 0.52 0.49 0.47 0.38 0.34 0.33 0.28 0.32 0.27 0.26 0.24 0.30 0.34 0.34 0.29 0.26 0.30 0.33 0.34 0.36 0.37 0.38 0.37 0.37 0.37 0.38 0.39 0.40 0.41 0.41 0.41
1.35 1.31 1.33 1.33 1.29 1.16 1.17 1.21 1.23 1.13 1.17 1.07 0.96 0.85 0.61 0.47 0.34 0.40 0.39 0.44 0.39 0.49 0.46 0.55 0.51 0.53 0.54 0.52 0.48 0.53 0.58 0.48 0.56 0.56 0.56 0.55 0.51 0.50 0.54 0.52 0.51 0.46 0.33 0.40 0.40 0.39 0.41 0.50 0.50 0.51 0.54 0.56 0.55 0.44 0.43 0.44 0.48 0.48 0.44 0.42 0.36 0.29 0.27 0.24 0.26 0.28 0.27 0.30 0.34 0.33 0.35 0.27 0.30 0.32 0.37 0.35 0.37 0.39 0.40 0.40 0.41 0.40 0.40 0.40 0.41 0.41 0.41 0.41
1.34 1.36 1.26 1.26 1.24 1.24 1.27 1.27 1.18 1.13 1.08 1.03 0.88 0.73 0.59 0.43 0.35 0.44 0.43 0.45 0.45 0.54 0.54 0.51 0.54 0.56 0.55 0.46 0.48 0.53 0.47 0.55 0.54 0.53 0.55 0.50 0.50 0.44 0.48 0.52 0.52 0.47 0.45 0.42 0.36 0.36 0.31 0.32 0.40 0.46 0.42 0.55 0.53 0.51 0.50 0.49 0.49 0.47 0.50 0.45 0.39 0.35 0.29 0.24 0.25 0.23 0.24 0.26 0.29 0.34 0.29 0.24 0.24 0.27 0.37 0.38 0.40 0.41 0.42 0.42 0.43 0.43 0.42 0.42 0.43 0.43 0.43 0.41
1.32 1.33 1.32 1.29 1.26 1.29 1.29 1.26 1.19 1.15 1.10 0.93 0.76 0.62 0.44 0.38 0.39 0.38 0.40 0.46 0.51 0.52 0.49 0.57 0.52 0.51 0.50 0.51 0.52 0.55 0.54 0.46 0.56 0.53 0.50 0.47 0.42 0.44 0.42 0.44 0.51 0.52 0.49 0.39 0.43 0.42 0.37 0.36 0.44 0.53 0.53 0.56 0.51 0.57 0.58 0.54 0.50 0.50 0.50 0.50 0.41 0.37 0.42 0.30 0.30 0.29 0.27 0.27 0.26 0.27 0.26 0.30 0.29 0.37 0.39 0.42 0.42 0.41 0.42 0.42 0.43 0.42 0.42 0.43 0.43 0.42 0.40 0.40
1.32 1.24 1.30 1.19 1.14 1.22 1.30 1.28 1.20 1.14 1.03 0.84 0.64 0.51 0.44 0.41 0.35 0.45 0.47 0.55 0.54 0.48 0.49 0.53 0.53 0.46 0.46 0.47 0.51 0.49 0.59 0.49 0.51 0.51 0.48 0.48 0.48 0.44 0.49 0.50 0.49 0.52 0.46 0.40 0.44 0.38 0.41 0.36 0.49 0.53 0.56 0.55 0.55 0.58 0.56 0.57 0.37 0.44 0.46 0.38 0.41 0.49 0.44 0.36 0.35 0.34 0.33 0.30 0.24 0.30 0.28 0.30 0.36 0.36 0.38 0.40 0.40 0.40 0.41 0.42 0.42 0.42 0.42 0.43 0.42 0.41 0.41 0.41
1.20 1.23 1.07 1.11 1.13 1.24 1.26 1.23 1.19 1.09 0.98 0.78 0.59 0.47 0.48 0.49 0.57 0.54 0.57 0.52 0.52 0.54 0.51 0.41 0.43 0.42 0.41 0.41 0.44 0.46 0.49 0.52 0.49 0.48 0.41 0.50 0.44 0.48 0.47 0.50 0.57 0.55 0.56 0.53 0.46 0.52 0.40 0.39 0.50 0.49 0.47 0.56 0.60 0.59 0.58 0.57 0.56 0.48 0.39 0.43 0.51 0.53 0.48 0.39 0.30 0.30 0.29 0.24 0.24 0.28 0.24 0.26 0.27 0.24 0.36 0.37 0.38 0.39 0.40 0.41 0.42 0.43 0.43 0.42 0.41 0.41 0.41 0.41
1.17 1.12 1.06 1.05 1.14 1.27 1.28 1.21 1.12 1.01 0.87 0.71 0.55 0.51 0.58 0.52 0.62 0.60 0.64 0.59 0.57 0.55 0.48 0.44 0.43 0.48 0.40 0.41 0.41 0.44 0.49 0.44 0.44 0.48 0.42 0.48 0.40 0.53 0.49 0.49 0.58 0.57 0.59 0.64 0.51 0.50 0.52 0.39 0.44 0.51 0.51 0.55 0.60 0.57 0.52 0.56 0.58 0.49 0.46 0.56 0.43 0.35 0.34 0.39 0.35 0.25 0.23 0.22 0.23 0.25 0.27 0.27 0.27 0.27 0.33 0.34 0.35 0.38 0.40 0.41 0.41 0.41 0.42 0.41 0.41 0.42 0.43 0.44
1.17 1.09 0.90 1.01 1.24 1.29 1.28 1.23 1.09 0.90 0.74 0.59 0.56 0.50 0.54 0.56 0.63 0.63 0.65 0.63 0.60 0.55 0.47 0.46 0.42 0.47 0.46 0.41 0.43 0.48 0.48 0.40 0.46 0.45 0.41 0.45 0.40 0.49 0.48 0.53 0.52 0.60 0.63 0.63 0.55 0.53 0.54 0.41 0.41 0.52 0.51 0.54 0.54 0.51 0.39 0.44 0.54 0.55 0.55 0.49 0.52 0.44 0.38 0.34 0.34 0.33 0.31 0.24 0.23 0.22 0.25 0.21 0.29 0.31 0.34 0.34 0.36 0.38 0.39 0.40 0.40 0.41 0.41 0.41 0.41 0.42 0.43 0.43
1.01 0.89 0.83 1.09 1.25 1.29 1.29 1.19 0.95 0.82 0.67 0.52 0.55 0.50 0.54 0.54 0.61 0.67 0.67 0.63 0.57 0.54 0.49 0.48 0.52 0.47 0.48 0.46 0.48 0.44 0.49 0.49 0.47 0.46 0.47 0.47 0.44 0.53 0.50 0.59 0.53 0.57 0.62 0.64 0.58 0.60 0.50 0.54 0.38 0.46 0.55 0.52 0.41 0.46 0.41 0.44 0.41 0.44 0.45 0.42 0.45 0.43 0.46 0.43 0.39 0.34 0.30 0.26 0.25 0.23 0.20 0.23 0.30 0.36 0.36 0.36 0.38 0.39 0.39 0.39 0.41 0.41 0.42 0.42 0.43 0.44 0.44 0.43
1.09 0.88 0.83 1.17 1.26 1.30 1.24 1.01 0.77 0.65 0.61 0.61 0.61 0.55 0.57 0.54 0.59 0.64 0.68 0.69 0.64 0.68 0.58 0.54 0.52 0.49 0.49 0.47 0.47 0.52 0.49 0.51 0.50 0.47 0.48 0.48 0.47 0.40 0.54 0.56 0.59 0.56 0.63 0.62 0.58 0.57 0.51 0.49 0.41 0.44 0.44 0.42 0.44 0.52 0.51 0.50 0.49 0.45 0.44 0.40 0.42 0.40 0.36 0.31 0.28 0.37 0.35 0.30 0.25 0.23 0.19 0.25 0.32 0.39 0.38 0.39 0.40 0.40 0.42 0.41 0.40 0.41 0.42 0.44 0.44 0.45 0.44 0.44
0.91 0.70 0.77 1.15 1.25 1.24 1.01 0.70 0.68 0.73 0.65 0.58 0.52 0.56 0.56 0.72 0.64 0.63 0.67 0.70 0.68 0.61 0.69 0.61 0.60 0.56 0.54 0.52 0.52 0.53 0.52 0.50 0.51 0.49 0.50 0.46 0.50 0.50 0.55 0.63 0.62 0.63 0.58 0.53 0.53 0.59 0.57 0.53 0.48 0.42 0.43 0.45 0.49 0.54 0.57 0.55 0.53 0.50 0.48 0.43 0.46 0.44 0.42 0.34 0.26 0.29 0.35 0.34 0.34 0.30 0.25 0.24 0.36 0.39 0.40 0.40 0.41 0.42 0.42 0.42 0.41 0.43 0.44 0.45 0.46 0.46 0.47 0.47
0.84 0.76 1.07 1.17 1.20 1.11 0.88 0.67 0.68 0.66 0.62 0.63 0.68 0.69 0.72 0.69 0.65 0.70 0.65 0.67 0.62 0.67 0.63 0.60 0.57 0.56 0.59 0.56 0.56 0.55 0.55 0.50 0.51 0.48 0.50 0.52 0.52 0.56 0.61 0.63 0.64 0.63 0.63 0.58 0.60 0.59 0.61 0.50 0.44 0.45 0.50 0.52 0.54 0.56 0.57 0.56 0.52 0.48 0.47 0.48 0.45 0.39 0.40 0.38 0.36 0.37 0.32 0.32 0.29 0.28 0.24 0.27 0.37 0.42 0.42 0.43 0.43 0.44 0.43 0.44 0.45 0.45 0.46 0.47 0.47 0.48 0.47 0.47
0.81 0.82 0.90 1.16 1.23 1.08 0.78 0.55 0.54 0.59 0.62 0.65 0.68 0.66 0.72 0.69 0.68 0.66 0.65 0.66 0.63 0.62 0.60 0.59 0.62 0.65 0.58 0.64 0.60 0.54 0.58 0.48 0.55 0.54 0.52 0.56 0.53 0.64 0.64 0.63 0.64 0.60 0.60 0.57 0.52 0.59 0.49 0.48 0.47 0.40 0.39 0.40 0.43 0.47 0.47 0.51 0.50 0.44 0.41 0.44 0.45 0.46 0.46 0.44 0.43 0.41 0.32 0.30 0.31 0.28 0.20 0.26 0.35 0.42 0.43 0.42 0.43 0.42 0.42 0.45 0.46 0.44 0.46 0.47 0.48 0.48 0.48 0.47
0.83 0.87 0.87 0.95 1.10 1.01 0.69 0.70 0.61 0.58 0.60 0.61 0.62 0.60 0.63 0.66 0.70 0.69 0.68 0.68 0.73 0.68 0.64 0.61 0.63 0.65 0.64 0.66 0.61 0.61 0.61 0.56 0.49 0.58 0.57 0.56 0.55 0.65 0.65 0.64 0.65 0.61 0.65 0.67 0.64 0.66 0.53 0.47 0.46 0.36 0.30 0.27 0.26 0.26 0.27 0.32 0.37 0.43 0.45 0.44 0.46 0.44 0.42 0.40 0.34 0.35 0.29 0.30 0.32 0.28 0.25 0.33 0.38 0.40 0.40 0.41 0.42 0.42 0.44 0.45 0.47 0.47 0.47 0.47 0.48 0.48 0.48 0.48
0.73 0.57 0.73 0.79 0.89 0.86 0.84 0.84 0.74 0.66 0.61 0.61 0.59 0.61 0.63 0.59 0.67 0.72 0.73 0.70 0.75 0.74 0.72 0.69 0.71 0.71 0.65 0.64 0.59 0.57 0.57 0.62 0.58 0.53 0.55 0.52 0.56 0.61 0.66 0.67 0.65 0.62 0.65 0.66 0.66 0.63 0.54 0.52 0.49 0.44 0.39 0.34 0.35 0.40 0.46 0.47 0.45 0.39 0.41 0.44 0.43 0.46 0.46 0.43 0.40 0.35 0.28 0.31 0.29 0.29 0.31 0.33 0.34 0.38 0.39 0.40 0.42 0.43 0.44 0.46 0.46 0.48 0.49 0.49 0.49 0.49 0.49 0.49
0.76 0.62 0.64 0.58 0.75 0.76 0.71 0.76 0.71 0.70 0.61 0.65 0.55 0.59 0.57 0.59 0.62 0.67 0.78 0.64 0.72 0.70 0.71 0.71 0.69 0.64 0.63 0.61 0.57 0.57 0.60 0.59 0.62 0.60 0.56 0.55 0.59 0.63 0.69 0.67 0.67 0.65 0.64 0.64 0.66 0.61 0.51 0.46 0.46 0.46 0.45 0.45 0.47 0.45 0.48 0.48 0.43 0.44 0.43 0.42 0.45 0.44 0.44 0.41 0.36 0.30 0.37 0.34 0.26 0.30 0.36 0.32 0.34 0.39 0.40 0.41 0.44 0.45 0.47 0.47 0.48 0.49 0.50 0.50 0.49 0.50 0.49 0.49
0.57 0.65 0.72 0.75 0.61 0.55 0.59 0.61 0.69 0.66 0.66 0.68 0.61 0.64 0.59 0.59 0.61 0.57 0.68 0.72 0.72 0.76 0.64 0.68 0.69 0.67 0.65 0.61 0.61 0.55 0.58 0.58 0.58 0.54 0.59 0.60 0.59 0.62 0.61 0.66 0.62 0.64 0.65 0.62 0.66 0.58 0.48 0.44 0.48 0.50 0.46 0.49 0.50 0.49 0.50 0.48 0.47 0.46 0.45 0.45 0.43 0.43 0.43 0.38 0.36 0.39 0.39 0.33 0.26 0.32 0.36 0.34 0.36 0.41 0.43 0.44 0.46 0.47 0.48 0.50 0.51 0.52 0.52 0.51 0.49 0.48 0.48 0.49
0.67 0.68 0.70 0.79 0.62 0.65 0.64 0.64 0.69 0.67 0.64 0.65 0.61 0.62 0.58 0.59 0.57 0.62 0.62 0.64 0.68 0.67 0.70 0.55 0.58 0.62 0.65 0.68 0.64 0.57 0.58 0.51 0.51 0.58 0.57 0.58 0.59 0.60 0.57 0.61 0.65 0.67 0.65 0.61 0.62 0.63 0.55 0.48 0.50 0.52 0.48 0.49 0.51 0.51 0.51 0.48 0.47 0.46 0.45 0.45 0.45 0.44 0.42 0.42 0.41 0.43 0.42 0.37 0.38 0.39 0.37 0.35 0.39 0.43 0.46 0.48 0.51 0.51 0.52 0.53 0.53 0.51 0.51 0.49 0.49 0.48 0.49 0.49
0.59 0.57 0.57 0.72 0.70 0.67 0.67 0.67 0.66 0.65 0.59 0.65 0.56 0.58 0.58 0.58 0.57 0.62 0.67 0.64 0.57 0.61 0.71 0.62 0.59 0.63 0.66 0.67 0.66 0.59 0.61 0.60 0.58 0.55 0.64 0.62 0.61 0.63 0.59 0.60 0.59 0.66 0.67 0.61 0.62 0.65 0.57 0.48 0.54 0.53 0.48 0.47 0.49 0.51 0.50 0.49 0.47 0.43 0.45 0.46 0.46 0.45 0.45 0.45 0.44 0.44 0.44 0.41 0.39 0.41 0.38 0.36 0.44 0.50 0.51 0.54 0.55 0.55 0.53 0.51 0.51 0.51 0.49 0.48 0.48 0.47 0.46 0.44
0.69 0.74 0.72 0.62 0.58 0.63 0.65 0.65 0.62 0.61 0.57 0.60 0.56 0.57 0.59 0.60 0.58 0.63 0.63 0.70 0.64 0.60 0.65 0.60 0.62 0.64 0.68 0.67 0.66 0.65 0.69 0.69 0.68 0.67 0.68 0.67 0.58 0.65 0.61 0.61 0.67 0.60 0.64 0.62 0.62 0.62 0.61 0.52 0.57 0.53 0.44 0.42 0.48 0.49 0.50 0.50 0.49 0.46 0.45 0.44 0.44 0.43 0.41 0.43 0.42 0.44 0.42 0.37 0.39 0.41 0.38 0.36 0.45 0.51 0.53 0.53 0.53 0.52 0.50 0.49 0.48 0.46 0.46 0.46 0.45 0.44 0.43 0.41
0.73 0.77 0.76 0.67 0.54 0.62 0.59 0.63 0.62 0.59 0.51 0.58 0.59 0.57 0.58 0.57 0.62 0.66 0.57 0.68 0.71 0.71 0.70 0.68 0.68 0.66 0.64 0.63 0.62 0.66 0.72 0.73 0.73 0.74 0.75 0.75 0.75 0.73 0.73 0.70 0.69 0.63 0.61 0.60 0.64 0.58 0.58 0.54 0.49 0.48 0.42 0.40 0.45 0.50 0.49 0.49 0.47 0.41 0.38 0.41 0.47 0.47 0.48 0.49 0.50 0.50 0.48 0.48 0.43 0.39 0.38 0.45 0.49 0.51 0.49 0.49 0.49 0.48 0.46 0.44 0.43 0.45 0.46 0.46 0.43 0.41 0.41 0.42
Wind_Speed
15 14 14 14 14 14 13 13 12 12 11 11 10 10 9 9 9 8 8 8 7 7 6 6 6 6 6 6 6 6 6 6 6 6 6 6 6 6 6 6 6 5 5 5 5 5 5 5 5 6 6 6 6 6 6 6 6 7 7 6 6 6 6 6 6 6 6 5 5 6 6 7 7 6 6 7 6 7 7 5 4 4 4 5 6 8 9 9
16 15 15 15 15 14 14 14 13 13 12 12 11 11 10 10 10 9 9 8 8 7 7 7 7 7 7 7 7 7 7 7 7 6 6 7 7 6 6 6 6 6 6 6 6 6 6 6 7 7 7 6 7 7 7 7 7 7 7 7 6 6 6 6 6 6 6 5 5 6 7 7 8 7 7 7 6 7 7 5 4 4 4 6 7 7 8 8
16 16 16 16 16 15 15 14 14 13 13 12 12 11 11 11 10 10 10 9 9 8 8 8 8 8 8 8 7 7 7 8 7 7 6 6 6 6 6 6 6 6 6 6 6 7 7 7 7 7 7 7 7 7 7 7 7 7 7 7 6 6 7 7 7 7 7 6 7 7 7 8 8 8 8 9 8 8 7 6 7 7 7 7 7 7 7 7
17 17 17 16 16 16 16 15 15 14 14 13 13 12 12 12 11 11 10 10 9 9 9 9 9 8 8 8 8 8 8 9 8 7 7 6 6 6 7 6 6 6 6 6 7 7 7 7 7 7 7 6 7 7 7 7 8 7 8 7 6 7 7 7 8 7 7 8 8 8 8 9 8 9 9 9 10 8 6 7 8 8 8 8 7 7 7 7
18 17 17 17 17 17 16 16 16 15 15 14 14 13 13 12 12 12 11 11 10 10 10 10 9 9 9 9 9 9 9 9 8 8 7 7 7 7 7 7 7 7 6 7 7 7 7 7 7 7 7 7 7 8 7 7 8 7 8 7 6 8 8 7 8 8 8 8 8 9 9 9 9 10 10 10 10 9 8 9 9 9 8 8 7 7 7 7
19 18 18 18 18 18 17 17 17 16 16 15 15 14 14 14 13 13 12 12 11 11 11 11 10 10 10 10 10 10 10 9 8 9 8 8 8 8 8 8 8 8 7 7 7 7 7 7 7 7 7 8 8 8 7 8 8 8 8 8 8 9 9 8 8 8 8 9 9 10 10 9 10 11 10 10 10 9 9 9 9 9 9 8 8 8 7 7
20 20 19 19 19 19 19 18 18 17 17 16 16 15 15 15 14 14 13 13 13 12 12 12 11 11 11 11 11 10 10 11 10 11 10 10 10 10 10 9 9 9 9 8 8 9 8 9 8 8 8 8 9 8 8 8 9 10 9 8 9 10 10 9 9 9 10 11 10 10 10 11 11 11 10 9 9 9 9 9 9 9 9 9 8 8 8 8
21 21 20 20 20 20 20 19 19 19 18 18 17 17 16 16 15 15 14 14 14 13 13 13 12 12 12 12 11 11 12 12 12 12 12 12 12 12 11 11 11 10 10 10 10 10 9 10 9 9 9 9 9 9 9 10 9 10 9 9 9 10 10 10 11 11 12 12 11 11 11 12 11 11 10 9 9 9 9 9 9 9 9 9 9 9 9 9
23 22 22 21 22 21 21 21 20 20 19 19 18 18 17 17 17 16 16 15 15 15 14 14 14 13 13 12 12 13 13 12 12 13 13 13 13 13 13 12 12 12 11 11 11 11 11 11 10 11 10 9 10 10 10 11 10 10 10 9 10 10 11 11 12 12 12 12 11 12 12 12 11 11 10 10 10 10 10 9 9 9 9 9 10 10 10 10
25 24 23 23 23 23 23 22 22 21 21 20 20 19 19 18 18 17 17 17 16 16 16 15 15 14 14 13 13 13 13 12 12 13 13 13 13 13 13 13 13 13 12 12 12 12 12 12 11 11 11 10 10 10 11 11 10 10 10 11 12 12 12 12 12 12 12 12 13 13 13 11 12 13 12 11 11 10 10 10 10 10 10 10 10 10 10 10
27 26 25 24 24 24 24 24 23 23 22 21 21 20 20 19 19 19 18 18 18 17 17 16 16 16 15 15 15 15 14 14 13 13 13 13 13 13 13 13 14 14 13 13 13 13 13 12 11 11 11 11 10 11 11 11 11 11 12 13 13 13 13 12 12 12 13 13 13 14 13 11 12 13 12 11 12 12 11 10 10 10 10 10 10 11 11 11
28 28 27 26 25 25 25 25 25 24 23 23 22 22 21 21 20 20 20 19 19 18 18 17 17 17 16 16 17 16 16 15 15 14 14 14 14 14 14 14 14 14 14 14 14 14 13 12 12 12 12 12 11 11 11 11 12 12 12 13 14 14 13 12 12 12 13 13 12 13 13 13 13 12 12 12 12 12 12 11 11 11 11 11 11 11 11 12
30 29 28 27 27 26 26 26 26 25 25 24 23 23 22 22 21 21 21 20 20 19 19 19 18 18 18 17 17 17 17 17 16 16 16 15 15 15 15 15 15 15 15 15 14 14 14 13 13 12 12 12 12 12 12 12 13 13 12 13 14 15 13 12 12 13 13 12 12 13 14 13 12 11 11 12 12 13 13 12 12 12 12 12 12 12 12 12
31 30 30 29 28 28 27 27 27 26 26 25 25 24 23 23 23 22 22 21 21 20 20 20 19 19 19 18 18 18 18 18 18 17 17 17 17 16 16 16 16 16 16 15 15 14 14 14 13 13 13 13 13 12 13 13 13 14 13 13 14 14 13 11 12 13 13 12 12 14 14 13 12 12 12 13 14 14 14 13 13 13 13 13 13 13 12 12
33 32 31 30 29 29 28 28 28 27 27 26 26 25 24 24 23 23 23 22 22 21 21 21 20 20 20 20 19 19 19 19 19 19 19 19 18 17 17 16 16 16 15 15 15 15 14 14 14 13 13 13 13 14 14 14 14 14 14 14 13 13 13 12 12 13 13 12 12 14 14 13 12 12 12 13 14 15 14 14 14 14 13 14 13 13 13 12
34 33 32 32 31 30 29 29 29 28 28 27 27 26 25 25 24 24 23 23 23 22 22 22 21 21 21 20 19 19 20 20 20 20 20 19 19 18 17 16 16 16 16 15 15 15 15 15 15 14 14 14 14 15 15 15 15 14 15 15 14 14 14 13 12 13 13 13 13 14 15 14 13 12 13 13 14 14 14 14 14 14 14 14 14 14 13 13
35 35 34 33 32 31 30 30 30 29 29 28 28 27 26 26 25 25 24 24 23 23 23 22 21 22 22 21 20 20 20 20 20 20 20 20 20 18 17 17 17 16 16 16 16 16 16 16 16 16 15 15 15 15 16 17 17 15 14 15 15 14 15 14 14 13 14 15 15 15 16 16 14 14 14 14 14 14 14 14 14 15 15 15 15 14 14 13
36 36 35 34 33 32 31 31 30 30 29 29 28 27 27 27 26 26 26 25 24 23 23 23 22 23 23 22 21 20 20 20 20 20 20 19 19 18 18 18 18 17 16 17 17 17 17 17 17 17 15 16 16 16 17 17 16 15 15 15 15 15 16 16 16 15 15 17 17 17 18 18 16 15 16 15 16 16 15 15 15 15 16 15 15 14 14 13
37 37 36 35 34 33 32 32 32 31 30 30 29 28 28 27 27 27 27 26 25 24 24 24 23 23 22 21 21 20 20 20 20 21 20 20 19 19 19 18 18 18 17 18 18 18 18 17 17 17 17 17 18 18 19 17 15 15 15 16 16 17 17 17 17 17 17 19 20 20 21 21 19 17 17 16 16 16 16 16 16 16 16 15 15 14 13 12
38 38 37 36 35 34 33 33 33 32 31 30 29 28 28 27 27 27 27 28 28 27 26 25 25 25 23 22 21 21 21 21 21 21 20 20 20 19 19 19 19 19 19 19 18 18 19 19 19 19 18 19 19 19 18 16 14 16 16 17 18 19 19 18 17 18 18 20 21 21 22 22 21 18 16 16 16 17 17 16 16 16 16 15 15 14 13 13
39 38 37 36 36 35 34 34 33 32 32 31 30 29 28 28 27 27 27 29 30 29 29 28 28 27 26 24 24 23 22 22 22 22 21 21 21 20 20 20 19 20 20 18 18 18 19 21 21 19 18 18 19 19 17 16 17 17 18 19 19 20 21 19 18 19 19 21 21 20 21 23 22 18 15 16 17 17 17 17 16 16 15 15 15 14 14 13
40 39 38 37 37 36 35 34 34 33 32 32 31 31 29 29 29 28 28 29 30 30 30 29 29 29 28 26 26 25 24 23 23 23 23 22 22 22 21 20 21 21 19 18 18 19 21 23 21 18 16 17 18 18 19 19 19 19 19 20 21 20 21 20 19 19 19 20 21 19 21 23 21 17 15 17 17 17 17 17 16 15 15 15 15 14 14 14
41 40 39 38 37 36 35 35 34 34 33 33 32 32 30 29 29 29 29 30 30 30 31 31 31 31 29 28 28 26 26 25 24 24 24 23 23 23 22 22 22 20 19 21 21 21 22 22 20 17 16 17 18 19 19 20 20 21 20 21 22 20 20 21 19 18 19 20 20 20 21 23 21 18 16 17 17 17 17 17 16 16 15 15 15 15 15 15
42 41 40 39 37 37 36 35 35 34 34 34 34 33 31 29 29 29 29 30 31 31 31 31 31 32 31 29 28 28 28 26 25 25 25 25 23 22 23 22 21 21 22 23 23 24 23 20 19 18 18 19 18 19 20 20 21 22 22 23 23 21 21 22 20 19 20 20 20 21 22 22 20 20 18 16 17 17 16 16 16 16 16 15 16 16 16 15
42 42 41 39 38 37 36 35 35 34 34 34 34 33 32 30 29 28 28 30 32 31 30 31 31 31 31 29 29 28 27 27 26 25 25 26 24 22 22 22 22 24 24 23 24 26 24 20 19 19 20 21 20 20 21 21 22 23 23 24 25 24 23 22 20 20 22 21 19 19 20 18 16 17 17 15 16 16 15 16 16 16 16 16 16 16 16 15
43 42 41 40 39 38 36 36 35 34 34 34 34 32 32 30 28 28 27 29 33 31 28 29 29 29 29 28 28 26 26 27 26 25 25 26 25 23 23 22 23 24 22 21 23 25 23 20 20 20 21 21 22 23 22 21 23 24 23 23 24 24 22 21 20 21 21 20 18 17 19 18 16 16 14 13 15 16 15 16 17 17 17 17 17 16 16 15
44 43 42 41 40 39 37 36 35 34 34 33 33 32 31 30 28 27 26 27 31 29 27 28 28 27 26 26 26 25 25 25 23 24 25 25 25 24 25 24 23 23 22 22 24 24 21 21 21 21 21 22 23 23 21 22 24 24 22 21 22 22 22 21 21 21 21 19 18 18 19 20 20 18 15 14 16 16 16 17 17 18 18 17 17 17 16 16
45 44 43 43 42 41 39 36 35 35 34 31 31 32 31 29 28 26 25 26 27 24 23 25 26 26 25 25 25 24 24 23 21 23 24 24 25 24 26 26 24 23 23 24 25 24 22 22 22 21 22 23 23 21 20 22 24 23 21 21 20 20 20 20 20 21 20 20 20 19 18 20 22 19 16 16 17 19 19 18 18 19 18 18 18 17 16 15
46 45 44 44 44 43 40 38 37 36 35 32 31 32 30 29 28 25 24 26 26 24 23 23 23 23 22 23 24 23 23 23 22 22 22 23 24 24 25 25 23 23 24 25 26 24 23 23 23 22 23 23 21 20 20 22 23 21 20 19 18 18 17 18 19 19 19 21 22 20 19 20 22 20 17 17 18 20 19 18 19 19 18 18 18 17 16 16
48 47 45 45 45 44 42 40 39 36 34 33 33 32 31 30 29 26 26 28 26 24 24 24 24 23 22 22 23 22 22 22 22 21 22 23 23 23 23 23 22 23 24 25 26 24 23 23 23 23 23 22 20 19 20 21 21 20 19 18 17 17 17 18 19 19 19 22 22 21 21 22 22 20 18 18 18 17 16 16 17 18 18 18 17 17 17 16
48 48 47 46 45 44 42 40 40 37 35 34 34 33 31 30 28 28 29 29 27 26 26 25 24 24 24 24 23 23 22 22 22 22 23 23 23 23 23 23 23 23 24 26 26 24 24 24 24 24 23 21 20 20 20 21 21 21 20 19 18 18 18 18 18 18 21 21 18 18 20 22 23 20 17 16 15 15 15 16 17 17 17 17 17 17 17 17
48 48 48 46 45 45 43 41 39 38 36 35 34 33 31 29 30 33 32 28 27 28 28 26 26 26 25 24 23 23 23 23 23 24 24 24 25 26 26 26 25 23 25 27 26 24 25 26 25 24 24 24 22 21 20 21 22 22 21 19 19 18 18 19 18 18 21 20 17 17 18 21 24 22 20 18 15 15 15 15 16 17 17 17 17 18 18 17
48 49 49 48 47 45 44 42 40 38 37 36 35 34 32 31 34 38 36 31 27 27 26 25 26 26 25 25 24 23 23 23 24 24 24 25 27 28 28 27 26 25 24 25 25 25 25 25 25 25 25 25 25 24 23 22 23 23 22 21 20 19 18 19 18 18 20 19 18 18 18 20 22 22 21 20 16 14 14 14 15 17 17 17 17 18 18 18
48 49 49 50 49 47 45 43 42 40 39 37 36 35 35 35 37 38 38 36 31 27 26 24 24 25 26 26 25 25 24 25 25 25 25 26 27 29 29 29 28 26 24 24 25 25 25 25 24 25 24 24 26 26 23 22 22 23 22 22 22 20 20 19 18 19 18 17 17 18 18 19 19 17 17 17 16 15 15 15 16 17 17 17 18 19 19 19
48 48 48 49 50 50 48 45 44 43 41 39 37 37 38 41 41 38 38 37 33 30 28 26 25 26 28 27 26 27 27 27 26 26 27 28 29 29 29 29 29 27 26 25 25 25 26 26 24 23 22 23 24 24 22 21 22 22 21 22 23 22 21 20 19 19 18 18 19 20 20 21 19 17 16 16 17 17 16 17 18 18 17 17 19 20 20 20
45 47 48 48 50 50 49 46 45 44 43 40 39 41 43 43 40 37 36 35 34 33 31 29 29 29 30 29 29 29 28 27 27 27 29 29 30 30 29 28 29 28 28 26 25 24 25 25 23 23 23 22 22 22 22 23 23 21 22 24 23 22 21 20 20 19 19 21 21 20 22 22 21 20 18 17 17 17 18 18 18 18 17 18 20 21 22 22
42 45 47 49 50 51 50 47 46 45 44 41 41 43 45 44 41 38 36 34 33 33 32 33 33 32 32 31 31 31 29 28 28 29 29 28 30 30 29 28 28 30 30 27 26 26 25 24 23 23 23 22 22 21 21 23 23 22 23 23 21 21 22 21 21 19 19 23 22 21 23 22 20 20 18 17 18 19 19 19 18 18 19 20 22 22 23 22
40 42 46 49 50 50 50 48 47 47 44 42 44 46 45 44 42 40 38 35 34 34 35 36 35 34 34 33 32 32 31 30 30 30 29 29 29 29 28 28 28 30 30 27 27 27 26 25 24 23 23 22 22 23 22 23 24 23 23 22 20 21 21 20 21 20 20 22 22 21 22 22 22 20 19 19 20 20 21 20 19 20 21 21 22 23 24 23
39 39 43 48 50 50 50 48 48 47 44 43 46 48 46 45 43 41 40 38 36 37 38 38 36 35 36 35 33 32 32 32 31 30 30 30 29 28 28 27 26 28 29 27 27 26 26 26 24 23 23 22 23 25 25 24 23 23 23 22 22 22 21 21 21 21 20 21 21 21 21 22 23 22 21 22 22 20 20 20 20 21 22 22 23 24 25 25
40 38 40 45 48 49 48 47 46 45 44 45 47 47 46 45 44 43 43 42 40 39 40 39 37 37 36 35 33 32 33 34 33 32 32 31 30 29 29 28 26 25 26 26 27 26 25 26 25 22 23 23 25 26 26 25 24 24 25 25 24 23 21 22 23 22 21 21 21 22 23 22 21 21 21 22 21 19 19 20 21 21 22 24 24 25 26 27
39 37 37 42 46 47 46 44 43 43 43 45 46 46 43 42 42 43 44 43 42 40 39 39 38 38 36 35 34 33 33 34 34 34 34 33 33 31 30 29 26 23 24 25 27 27 26 26 25 24 25 26 26 25 24 25 26 26 27 27 27 25 23 22 23 23 23 23 22 22 24 23 21 21 21 21 20 19 19 19 20 22 24 25 26 27 28 28
37 36 36 39 45 46 45 42 41 41 43 44 46 45 41 39 40 41 41 41 41 40 39 39 39 38 37 36 36 34 34 35 35 36 35 35 35 32 29 29 27 25 25 26 27 26 25 25 25 25 26 26 25 24 25 26 27 27 28 28 27 27 26 25 24 22 23 25 23 22 25 25 22 22 21 21 21 20 20 20 21 23 26 27 27 28 29 29
35 36 36 39 43 45 43 41 41 41 42 44 45 44 42 41 39 39 39 40 40 39 39 39 39 39 38 36 36 36 36 36 36 37 35 34 34 31 29 29 27 26 26 26 26 25 25 26 26 25 25 25 25 26 26 26 27 29 30 29 28 29 28 27 26 24 24 25 23 22 25 25 23 23 23 22 22 22 22 23 24 25 26 27 28 28 29 30
33 33 35 40 45 45 42 41 41 41 41 41 42 43 44 43 41 40 39 40 39 39 40 40 39 39 38 36 36 36 36 36 36 36 35 33 33 30 29 30 29 28 28 28 27 27 27 27 26 23 23 24 25 26 27 28 28 29 29 28 29 30 27 27 27 25 27 27 25 25 26 25 23 24 24 24 23 23 24 25 26 26 26 27 28 29 30 30
32 30 32 38 44 44 42 41 41 41 41 41 42 44 44 43 43 43 41 40 39 38 39 39 38 38 37 36 36 37 37 36 35 34 34 33 32 30 30 31 31 30 29 28 27 28 28 28 28 26 25 25 25 26 28 28 28 29 29 29 31 31 30 29 28 28 28 27 26 28 28 24 24 26 26 25 24 25 26 26 27 28 28 29 30 30 31 31
34 32 31 34 39 41 39 39 41 41 40 41 41 43 44 43 42 43 43 41 41 40 39 37 36 37 37 37 38 38 38 37 34 33 34 33 32 31 30 31 32 31 30 28 28 28 28 29 31 33 32 30 28 28 27 26 28 31 31 30 31 32 33 32 30 31 29 25 28 32 30 27 28 27 27 26 25 26 27 27 28 30 30 31 31 31 32 33
37 35 33 32 35 39 38 37 39 40 40 41 40 40 44 45 41 39 41 42 41 41 40 37 36 38 38 38 39 38 38 37 35 35 35 33 32 31 31 31 31 31 30 30 30 29 29 32 34 36 37 34 30 30 29 28 31 34 33 33 33 33 34 35 35 34 29 27 32 33 30 31 31 29 29 29 27 29 29 29 30 31 32 32 32 32 32 34
40 38 37 35 34 37 39 39 39 40 40 40 40 39 41 44 42 40 40 40 40 40 40 39 40 42 41 40 39 38 37 37 37 38 36 35 33 32 31 31 32 32 31 31 32 31 31 34 34 34 37 36 32 32 32 31 31 33 34 35 35 35 36 38 39 35 31 32 35 31 30 34 33 30 31 30 29 31 31 31 32 33 33 33 32 32 34 35
41 40 39 38 36 36 38 37 38 40 40 39 39 40 41 44 44 42 38 37 38 39 40 42 43 43 43 41 41 40 39 39 39 40 37 36 35 34 33 33 33 33 32 32 33 33 32 35 34 34 37 38 35 34 34 32 32 32 33 35 36 37 38 38 39 37 35 38 37 32 33 36 33 30 31 30 31 32 32 33 33 33 33 33 33 34 35 36
41 41 40 40 38 37 36 36 37 39 40 39 39 40 40 43 44 42 38 38 39 39 40 44 45 43 41 41 41 42 42 42 41 40 37 36 37 36 36 36 34 34 34 33 34 34 34 35 34 33 36 37 36 35 34 34 34 33 35 36 35 36 37 37 38 36 36 39 37 33 36 37 33 30 30 31 32 32 33 33 34 33 33 33 34 36 37 38
41 41 41 40 39 38 37 37 38 39 40 40 40 39 39 42 43 40 38 38 39 39 40 44 44 41 40 42 44 44 42 41 40 39 38 39 38 37 37 37 35 35 36 36 35 35 37 36 34 33 36 36 35 35 35 35 34 36 40 39 35 34 35 36 36 35 36 38 37 36 38 37 33 31 31 31 32 33 34 34 34 34 34 34 36 37 38 39
41 41 41 40 39 39 38 37 38 39 39 39 39 38 38 38 39 38 36 36 36 37 39 42 42 39 39 43 44 42 39 37 37 37 37 38 38 37 36 37 36 36 36 36 36 36 37 37 35 35 35 35 34 34 34 32 31 36 42 41 37 37 37 35 35 36 37 37 36 38 39 36 32 32 32 33 34 35 35 34 34 35 35 36 37 38 38 39
Wind_Direction
205 205 205 206 206 207 207 208 210 210 211 212 213 213 212 211 211 212 214 217 220 225 230 236 244 250 257 262 268 272 274 269 261 262 258 253 250 245 242 237 237 239 243 251 255 260 265 271 280 281 277 278 285 282 281 288 285 278 274 275 273 270 270 264 258 264 274 266 256 270 278 279 285 287 293 290 284 293 294 292 292 295 303 302 301 300 301 305
211 211 211 211 212 212 213 214 215 215 216 216 216 217 216 216 217 218 220 223 226 230 236 242 249 255 261 266 270 273 273 268 261 262 261 254 249 242 239 237 238 242 250 257 261 264 266 271 276 279 278 277 281 280 279 284 285 279 275 277 273 271 276 272 267 268 272 271 260 264 270 274 283 289 292 288 285 291 289 280 272 280 298 302 304 304 305 308
216 216 216 217 217 217 218 218 218 218 218 218 219 220 220 221 222 224 225 228 232 236 242 247 253 259 263 267 270 272 272 266 259 258 255 248 243 238 237 239 241 247 257 263 266 267 268 271 274 277 277 276 279 278 278 283 282 277 274 275 272 271 276 271 268 270 272 273 268 263 264 270 278 282 285 288 287 281 282 287 280 284 298 300 299 302 305 307
220 221 221 221 221 221 220 220 220 221 222 222 223 224 224 225 226 228 230 233 237 241 246 251 256 261 264 267 269 270 271 264 255 251 246 243 241 238 241 242 245 253 264 267 268 268 267 270 275 276 274 273 277 275 277 285 281 274 276 278 272 269 269 264 265 269 269 269 268 265 264 267 273 278 280 284 284 275 276 290 288 289 294 294 293 296 299 302
223 223 224 224 224 223 223 223 223 224 225 226 227 227 228 229 231 232 235 238 242 245 250 254 259 262 265 267 267 267 270 263 251 246 243 244 245 244 245 246 249 257 263 265 268 268 265 268 272 273 274 273 275 274 276 285 282 273 277 281 272 267 270 266 263 266 266 266 264 263 266 268 271 275 274 275 280 280 281 285 286 287 287 286 287 289 293 297
225 225 226 226 226 225 225 226 227 227 228 229 229 230 231 233 234 236 239 242 245 249 253 256 260 262 265 267 265 264 266 262 253 247 246 249 249 247 248 249 252 256 262 266 267 267 265 267 268 270 274 274 277 278 276 279 279 276 274 274 270 267 272 269 263 265 264 263 263 264 268 268 269 273 271 271 278 281 282 282 281 281 280 280 282 287 292 295
227 227 228 227 227 228 228 229 229 230 230 231 232 233 234 235 237 239 242 245 247 251 254 258 260 263 266 265 263 263 262 260 256 251 251 252 250 249 251 254 255 257 262 265 264 265 264 265 267 268 272 274 275 275 275 276 275 277 275 271 271 269 270 269 265 266 264 264 266 267 269 266 268 272 271 271 275 276 278 278 276 274 274 276 280 287 290 294
229 229 230 230 230 230 230 231 231 232 232 233 234 235 236 238 240 242 244 247 249 252 255 258 260 263 265 262 262 263 261 260 258 254 253 253 251 251 252 255 257 259 261 263 263 264 263 265 266 267 272 276 272 271 274 275 272 275 276 272 271 269 269 270 269 267 265 267 267 265 267 268 269 271 272 272 270 270 272 272 271 269 271 274 278 283 286 291
231 231 232 232 232 232 232 232 233 233 234 235 236 237 238 240 241 243 246 248 250 253 256 258 260 263 262 261 263 264 261 260 258 255 253 252 251 251 253 255 256 257 259 263 263 262 263 266 265 266 272 273 269 271 275 274 275 276 276 274 271 270 272 272 271 269 267 267 265 264 267 270 268 268 272 272 266 265 266 268 269 268 269 272 275 279 283 288
232 233 233 234 234 234 234 234 234 235 235 236 237 238 240 241 243 245 247 249 251 253 256 258 260 262 260 259 261 262 261 259 257 256 254 252 251 251 253 255 256 256 259 262 262 262 265 266 265 266 271 270 268 272 274 274 277 276 276 275 272 273 274 271 270 270 269 268 266 266 269 271 267 268 272 269 262 262 264 267 270 268 268 270 273 278 281 286
233 234 234 235 235 235 235 234 235 235 236 236 238 239 241 242 244 246 248 250 252 254 255 257 260 260 259 259 259 260 260 258 257 256 254 252 253 253 254 255 256 257 259 262 261 262 266 264 263 267 270 268 266 271 272 273 275 276 278 276 272 273 273 271 271 272 271 270 267 266 269 270 266 268 274 269 260 262 265 267 269 268 268 271 274 279 282 287
234 234 235 236 236 236 236 235 235 235 236 237 238 240 242 243 245 247 248 250 252 254 255 257 259 259 259 260 258 259 260 258 256 255 254 254 253 254 255 256 258 259 260 262 261 263 265 261 260 267 270 266 266 271 270 271 274 275 278 278 276 275 273 275 276 274 272 271 268 267 269 268 265 270 275 270 261 262 266 268 268 268 269 271 275 279 282 287
234 235 235 236 237 237 236 236 236 236 237 237 239 241 242 244 246 247 249 250 252 254 255 257 258 258 259 260 260 260 259 257 255 254 254 254 253 255 256 257 259 260 263 262 261 262 262 260 262 267 268 266 268 270 268 270 273 272 273 277 279 277 273 276 278 275 273 271 268 268 271 269 266 270 274 269 262 261 266 267 266 267 268 271 274 277 281 286
235 235 235 237 237 237 237 237 236 237 237 238 240 241 243 245 246 248 249 251 252 253 255 257 257 258 259 260 261 260 258 256 254 253 254 254 253 255 257 259 260 261 263 262 260 261 261 261 263 265 267 270 268 266 268 271 273 273 273 273 275 276 273 274 277 276 274 272 268 267 272 272 265 268 274 271 263 262 266 266 265 265 267 269 272 275 279 283
235 236 236 236 237 238 238 237 237 237 237 239 241 242 244 245 247 248 249 250 252 253 255 256 257 258 259 260 260 259 257 255 254 253 254 254 253 255 257 258 259 260 260 260 259 260 260 260 262 265 267 268 264 264 269 271 271 273 273 270 271 272 273 274 275 278 276 273 270 267 272 274 266 267 276 274 265 261 264 263 263 263 265 267 270 274 278 281
236 236 236 237 237 237 238 238 238 237 238 240 241 242 244 245 246 247 249 250 251 253 255 255 256 258 260 260 258 257 256 255 254 254 253 253 254 254 254 255 257 258 258 259 259 260 261 262 264 266 266 265 263 265 269 269 269 270 271 271 271 270 273 275 272 275 277 273 270 268 271 275 269 269 276 275 268 263 262 262 261 262 263 267 270 275 277 278
235 236 237 237 237 237 238 238 238 238 239 240 241 243 244 245 247 248 249 250 252 254 255 255 256 258 259 258 257 256 255 255 254 253 253 254 254 251 251 254 256 256 256 258 259 260 262 263 263 264 265 266 264 264 266 267 268 269 269 270 270 268 270 273 271 273 276 272 270 269 269 272 271 271 275 274 269 265 264 262 261 262 264 267 270 274 274 274
235 236 237 237 237 237 238 238 237 238 239 240 241 243 244 245 247 248 248 250 252 254 255 255 255 257 257 255 255 255 255 254 253 253 253 252 251 250 252 255 255 254 254 258 260 260 261 263 262 263 263 263 261 259 261 266 270 269 267 268 269 267 266 269 272 274 275 272 270 269 269 270 268 268 273 271 267 265 264 262 262 262 263 266 269 270 270 269
235 236 236 237 236 237 238 238 237 238 239 240 242 242 243 246 248 248 249 250 250 251 255 253 250 255 257 254 254 255 255 253 252 252 251 251 250 250 253 255 254 253 254 257 258 258 260 260 260 261 259 257 257 257 261 268 273 269 267 268 268 268 269 270 272 275 276 273 270 270 271 271 268 265 266 267 265 264 262 261 261 262 262 264 266 266 265 263
235 235 236 236 236 236 238 237 237 238 239 240 241 241 243 245 248 250 249 250 250 252 254 252 250 253 256 256 254 252 253 253 254 252 250 249 249 249 252 254 254 255 256 258 258 258 259 257 256 259 259 257 255 257 264 269 269 267 267 267 267 269 272 272 272 275 275 273 271 270 272 272 270 265 262 263 263 261 259 259 259 259 260 260 261 261 260 260
234 235 236 236 235 236 237 237 237 237 238 239 240 241 244 245 248 250 250 251 252 252 254 253 253 254 255 255 252 250 252 253 253 251 249 249 248 249 251 252 253 255 258 259 259 258 257 256 257 261 263 261 258 259 263 264 264 266 266 267 268 269 273 274 273 274 274 272 272 272 272 271 269 265 262 261 259 259 258 258 259 258 257 258 257 257 258 259
234 234 235 235 235 235 236 237 236 237 238 239 239 242 245 246 248 252 253 254 253 252 252 253 253 253 253 253 251 250 251 251 251 249 248 248 248 251 252 251 253 255 257 256 256 257 255 257 260 262 263 263 262 260 259 262 264 265 266 267 270 272 275 275 274 274 272 271 273 274 272 271 269 264 260 258 257 258 259 259 260 258 257 257 255 256 256 256
234 234 235 235 235 235 236 236 236 237 238 238 239 241 245 247 249 252 254 256 255 253 251 251 251 251 250 251 250 249 249 249 249 247 246 245 247 251 250 249 253 254 252 250 251 254 256 260 263 259 256 257 261 259 258 262 264 263 264 266 269 273 275 274 274 274 271 271 274 275 274 272 268 263 259 258 258 258 258 258 258 257 257 256 254 255 255 253
234 234 235 235 234 234 236 236 237 238 238 239 240 241 244 247 249 252 255 256 256 253 251 251 251 249 248 250 248 245 247 250 250 247 244 243 245 250 250 250 252 252 251 249 251 254 258 264 263 256 253 254 258 258 256 261 263 262 263 265 269 271 270 271 274 274 271 270 271 274 274 272 268 263 260 258 257 257 256 255 255 254 254 254 254 254 254 252
233 233 235 234 233 234 235 236 237 238 238 239 241 241 243 246 249 253 255 257 257 253 251 250 250 250 248 247 246 245 249 251 250 249 244 242 243 248 252 252 252 252 251 251 255 257 259 262 258 255 256 255 257 259 257 260 264 265 263 264 268 270 269 270 272 272 271 269 268 270 270 270 267 264 262 258 254 254 254 253 251 251 251 252 254 253 252 251
232 233 234 234 233 232 233 236 237 237 238 240 241 240 241 244 247 250 253 258 258 252 249 248 247 248 246 244 243 244 251 251 250 249 244 243 245 248 251 252 255 256 253 253 258 260 260 259 258 256 256 256 258 260 259 260 264 267 267 266 265 268 269 268 267 267 268 269 269 267 265 267 267 264 262 259 255 251 251 252 250 251 252 252 253 251 248 249
231 232 232 233 232 231 233 236 236 236 237 240 240 238 239 241 243 248 252 257 258 252 248 247 246 246 245 244 240 240 250 251 248 247 245 244 246 249 252 250 253 256 254 254 256 258 258 256 258 257 256 256 258 261 260 258 262 267 272 270 265 265 266 264 263 263 265 268 266 262 263 267 267 265 262 257 255 252 249 250 251 251 251 251 250 248 247 248
231 230 231 231 231 231 235 236 235 235 237 239 239 236 236 238 240 245 248 253 255 251 248 246 244 245 245 242 240 242 251 251 249 248 246 245 246 250 252 250 251 252 252 252 254 259 259 255 255 254 255 257 259 265 260 254 262 269 272 271 268 267 266 263 262 262 265 267 263 259 260 265 265 263 262 258 255 256 252 249 249 250 250 249 248 247 246 247
230 230 230 230 230 232 235 236 235 236 237 238 237 235 233 234 238 242 245 249 251 251 250 245 241 243 241 239 242 247 250 252 253 250 246 245 247 251 253 252 251 250 252 255 256 260 261 259 258 255 256 258 262 269 263 257 263 267 267 270 270 270 268 264 263 262 264 263 261 258 254 262 267 261 258 259 258 258 256 251 249 248 247 247 246 245 244 246
230 230 229 230 230 231 233 236 236 236 237 236 235 233 230 233 237 237 241 246 249 251 251 245 243 242 236 236 244 248 249 253 252 248 247 248 248 252 253 251 252 251 254 258 257 259 260 261 261 258 260 261 262 267 268 265 264 260 261 265 266 266 265 264 264 263 264 262 261 260 253 257 266 262 256 259 261 261 257 251 248 245 243 243 243 243 243 244
230 230 229 229 230 230 232 235 235 235 236 235 232 229 229 235 237 235 240 247 250 250 248 247 246 242 235 238 245 247 249 252 248 245 248 250 249 250 249 248 250 251 253 255 255 257 258 257 259 259 260 260 260 264 267 267 263 260 260 259 259 262 261 262 262 260 262 264 265 267 259 254 259 262 262 262 261 260 256 250 243 239 238 239 241 242 242 242
229 229 228 229 230 231 233 234 234 232 233 231 228 227 230 234 236 236 241 246 248 247 247 247 247 243 240 244 248 247 248 251 248 247 250 250 249 248 248 248 246 248 252 252 253 256 256 256 257 259 259 257 257 260 262 263 261 259 255 250 251 257 259 260 260 260 263 265 268 267 261 257 258 261 266 266 262 258 257 256 246 235 235 238 240 241 241 242
229 229 229 229 230 232 233 233 232 229 229 228 227 229 231 233 236 237 239 241 245 248 249 248 248 245 243 245 248 247 250 252 248 250 253 251 250 250 251 253 250 251 255 252 251 254 256 258 256 256 259 257 253 253 255 257 255 252 248 244 247 253 258 259 259 264 266 265 266 264 260 262 264 264 265 265 264 260 257 259 254 242 238 239 239 240 242 245
230 229 231 231 231 231 231 231 230 227 227 227 227 229 229 233 238 238 237 239 243 249 250 249 246 245 244 246 248 247 249 251 246 248 251 249 250 249 250 251 250 252 255 253 253 252 255 260 255 253 257 254 251 255 256 254 251 251 251 248 248 250 256 260 259 262 266 266 263 261 260 262 264 267 268 264 262 260 258 258 258 252 245 242 241 242 245 248
230 230 231 231 231 230 229 229 228 226 226 226 228 228 228 233 239 239 238 238 241 245 249 249 247 246 247 250 251 248 250 251 247 248 250 249 250 250 249 248 246 248 249 250 255 254 255 261 259 259 261 252 250 257 256 251 250 254 254 250 251 253 255 261 263 263 267 269 262 257 261 264 265 267 268 264 259 256 257 259 258 254 249 246 246 246 248 251
232 231 231 232 231 228 227 228 227 226 226 227 228 228 231 237 240 240 240 240 240 241 243 247 249 248 249 250 250 248 251 252 248 250 251 251 253 252 251 250 245 245 248 248 253 255 255 260 260 261 261 255 254 256 254 251 249 250 249 247 251 256 255 257 262 264 265 267 263 257 261 265 265 265 264 262 260 256 256 258 256 254 252 250 250 249 250 253
233 231 231 231 230 227 226 226 226 226 227 229 230 232 236 240 240 240 242 242 241 240 240 245 247 247 248 249 249 247 249 251 248 250 251 252 254 250 248 251 247 245 249 251 254 255 255 260 260 258 257 256 256 254 253 253 251 247 247 248 251 255 254 254 259 262 260 264 265 259 258 259 259 262 263 260 259 257 256 257 257 258 257 255 252 250 251 254
234 233 232 231 228 226 225 226 226 226 228 230 232 235 239 240 239 240 242 243 242 240 242 245 246 247 247 248 248 245 245 248 246 248 250 250 253 248 243 249 248 244 246 249 254 255 254 258 260 257 256 254 253 250 248 250 251 251 252 251 249 250 251 249 254 260 258 262 267 262 259 258 254 257 261 260 258 257 257 259 259 259 257 256 254 251 253 256
235 236 236 231 226 225 225 224 225 227 230 231 232 236 240 241 241 240 240 242 243 242 243 246 246 248 247 247 248 245 244 246 245 247 249 249 251 248 242 247 249 245 242 244 251 253 252 255 257 257 255 252 249 246 243 243 247 250 250 249 249 252 253 249 251 258 259 261 266 265 263 261 257 257 258 259 260 259 258 260 261 258 255 254 254 253 255 258
233 237 239 230 224 224 223 223 226 228 231 232 234 238 241 242 242 242 240 241 244 244 245 245 244 245 246 246 247 246 245 248 246 247 250 247 248 250 246 246 250 248 243 242 248 251 250 252 254 254 252 247 245 246 246 243 242 243 243 243 245 249 253 255 255 255 258 262 264 266 267 265 264 265 262 260 264 263 260 261 261 258 255 254 255 256 256 258
232 236 238 227 221 220 219 222 226 228 231 233 235 238 240 241 242 241 240 240 243 245 246 245 243 244 244 244 246 246 246 248 247 248 250 247 247 251 249 246 247 246 242 243 246 247 247 248 249 248 246 245 248 253 254 251 248 248 246 244 243 244 246 253 256 254 256 260 262 266 270 269 269 273 271 270 274 272 264 261 260 257 256 258 259 259 259 260
231 235 234 224 219 217 217 223 228 228 230 233 235 238 239 240 240 240 240 240 242 244 245 246 244 244 244 243 245 246 245 247 248 248 250 248 248 251 251 247 244 239 239 245 248 248 248 247 248 248 249 249 253 255 254 255 255 254 253 250 249 247 244 247 255 255 253 257 261 266 270 271 272 274 275 277 280 277 268 263 264 264 263 264 264 264 263 262
231 234 232 223 217 214 218 226 227 227 232 234 236 238 238 239 240 240 240 240 241 242 243 244 244 243 244 244 245 245 245 247 247 245 248 250 249 251 250 245 241 238 241 247 249 247 246 245 245 248 252 253 253 253 253 255 254 252 253 252 250 249 247 249 255 257 254 254 256 262 268 270 272 274 277 278 277 274 270 268 271 272 271 269 268 267 266 265
230 232 232 224 217 215 220 225 225 227 232 233 235 236 237 239 239 239 240 240 241 242 242 242 243 243 245 245 245 244 243 245 246 244 247 250 250 251 247 240 237 239 244 248 248 243 243 243 241 244 251 251 251 252 252 252 251 252 253 249 247 248 248 250 254 256 258 255 249 257 267 270 272 275 277 276 274 272 272 273 273 274 273 272 271 270 268 267
229 231 231 225 219 219 224 227 227 229 232 232 233 235 236 239 239 239 240 241 242 243 242 243 243 242 244 244 245 244 242 243 246 245 246 249 249 250 247 240 238 241 246 250 247 242 243 243 239 239 244 246 249 253 254 252 251 252 251 246 245 244 243 246 250 252 257 256 249 255 266 272 276 276 274 273 274 273 273 274 274 274 275 275 274 272 269 268
229 230 230 226 222 224 229 231 229 231 232 232 235 235 235 237 240 239 239 241 241 241 242 244 243 241 242 241 242 243 242 244 247 246 246 247 248 250 247 242 242 243 245 246 242 241 246 247 242 242 246 249 254 259 258 253 248 247 247 245 245 245 244 246 249 251 255 259 257 257 262 269 272 271 270 270 271 272 274 275 276 276 276 276 276 274 271 268
229 229 228 226 224 226 230 232 230 231 232 233 235 236 234 236 239 239 238 240 240 239 241 243 240 238 239 238 239 242 242 242 244 244 244 246 248 250 248 245 246 245 244 245 242 242 247 247 245 247 250 252 257 260 259 252 247 246 247 246 246 246 245 245 248 252 253 257 262 262 261 265 266 265 266 268 269 273 276 276 276 276 277 277 276 273 270 268
229 229 228 227 229 229 230 231 231 232 233 233 236 238 235 234 236 237 238 240 240 238 239 241 239 237 238 237 239 241 241 241 242 242 243 245 246 247 247 248 249 247 246 247 245 245 248 249 249 249 251 254 256 257 258 255 252 250 248 247 248 247 245 245 248 251 250 254 263 264 260 263 266 263 265 269 269 271 272 272 273 276 277 276 273 270 270 270
229 230 230 230 233 235 234 232 232 233 233 233 236 238 236 235 236 237 239 240 240 238 237 239 239 238 239 239 240 241 240 240 241 242 243 243 244 245 247 249 249 249 248 248 248 248 249 251 251 251 253 255 254 254 256 256 256 255 251 250 251 250 248 249 251 251 251 256 262 264 262 266 268 264 266 270 269 269 270 271 273 274 275 273 271 270 271 273
230 231 231 231 234 236 236 234 232 233 234 233 235 237 237 236 237 238 238 238 239 239 238 239 240 240 240 240 240 241 241 241 243 244 242 243 245 246 248 249 249 249 249 248 248 249 249 251 253 254 255 256 253 253 254 255 256 257 255 255 255 253 252 253 253 253 254 258 262 263 264 268 268 267 269 270 269 270 270 270 271 273 273 272 271 272 273 275
230 231 231 232 234 235 235 235 234 234 234 233 234 237 237 237 237 237 240 241 241 241 239 240 242 242 242 241 241 242 243 243 245 246 243 243 246 248 250 250 249 248 248 247 248 248 249 252 254 254 254 255 254 252 252 255 257 258 257 256 253 252 253 254 255 255 255 257 260 261 264 268 269 269 271 271 269 269 270 270 271 272 272 271 272 273 274 275
230 231 231 231 234 235 235 235 234 233 234 234 235 236 237 238 237 236 239 243 243 243 243 241 241 242 243 242 242 243 243 242 244 246 246 247 249 250 251 250 247 247 247 247 249 249 249 250 252 251 252 254 254 252 251 253 254 256 257 255 250 250 253 254 256 256 256 257 259 261 264 268 270 269 270 271 270 270 270 270 271 271 271 271 273 274 276 277